Glasgow, United Kingdom

12:10 PM BST on April 29, 2017 (GMT +0100)
Glasgow

Weather History for EGPF - April, 2012

Change the Weather History Date:

Sunday, April 15, 2012

  Actual Average Record
Temperature  
Mean Temperature 38 °F -  
Max Temperature 50 °F 54 °F 71 °F (2003)
Min Temperature 26 °F 40 °F 26 °F (2012)
Degree Days  
Heating Degree Days 27    
Moisture  
Dew Point 26 °F    
Average Humidity 59    
Maximum Humidity 86    
Minimum Humidity 37    
Precipitation  
Precipitation 0.00 in - - ()
Sea Level Pressure  
Sea Level Pressure 30.24 in    
Wind  
Wind Speed 5 mph ()    
Max Wind Speed 10 mph    
Max Gust Speed -    
Visibility 6.2 miles    
Events      
Averages and records for this station are not official NWS values.
T = Trace of Precipitation, MM = Missing Value Source: Averaged Metar Reports

Daily Weather History Graph

Daily Weather History Graph

Search for Another Location

Airport or City:

Trip Planner

Search our weather history database for the weather conditions in past years. The results will help you decide how hot, cold, wet, or windy it might be!

Date:

Astronomy

Apr. 15, 2012 Rise Set
Actual Time 6:11 AM BST 8:24 PM BST
Civil Twilight 5:31 AM BST 9:05 PM BST
Nautical Twilight 4:40 AM BST 9:56 PM BST
Astronomical Twilight 3:39 AM BST 10:59 PM BST
Moon 4:00 AM BST (4/15) 2:10 PM BST (4/15)
Length of Visible Light 15h 33m
Length of Day
14h 13m
Waning Crescent, 30% of the Moon is Illuminated
Apr 15
Waning Crescent
Apr 21
New
Apr 29
First Quarter
May 6
Full
May 12
Last Quarter

Hourly Weather History & Observations

Time (BST) Temp. Windchill Dew Point Humidity Pressure Visibility Wind Dir Wind Speed Gust Speed Precip Events Conditions
12:20 AM 39.2 °F 35.9 °F 28.4 °F 65% 30.12 in - NNE 4.6 mph - N/A   Clear
12:50 AM 39.2 °F 35.0 °F 28.4 °F 65% 30.12 in - North 5.8 mph - N/A   Clear
1:20 AM 39.2 °F 34.2 °F 26.6 °F 61% 30.12 in - North 6.9 mph - N/A   Clear
1:50 AM 37.4 °F 34.9 °F 26.6 °F 65% 30.12 in - North 3.5 mph - N/A   Clear
2:20 AM 35.6 °F - 26.6 °F 70% 30.15 in - Variable 2.3 mph - N/A   Clear
2:50 AM 35.6 °F 31.7 °F 26.6 °F 70% 30.15 in 6.2 mi North 4.6 mph - N/A   Unknown
3:20 AM 33.8 °F 29.6 °F 24.8 °F 70% 30.15 in 6.2 mi North 4.6 mph - N/A   Unknown
3:50 AM 30.2 °F 25.4 °F 23.0 °F 75% 30.15 in 6.2 mi West 4.6 mph - N/A   Unknown
4:20 AM 33.8 °F 29.6 °F 23.0 °F 65% 30.18 in - West 4.6 mph - N/A   Clear
4:50 AM 33.8 °F 29.6 °F 23.0 °F 65% 30.18 in - WSW 4.6 mph - N/A   Clear
5:20 AM 32.0 °F 28.7 °F 23.0 °F 69% 30.18 in - NW 3.5 mph - N/A   Clear
5:50 AM 28.4 °F 22.2 °F 23.0 °F 80% 30.18 in - WNW 5.8 mph - N/A   Clear
6:20 AM 26.6 °F 22.6 °F 23.0 °F 86% 30.21 in - WNW 3.5 mph - N/A   Clear
6:50 AM 30.2 °F 26.7 °F 24.8 °F 80% 30.21 in - WSW 3.5 mph - N/A   Clear
7:20 AM 30.2 °F 25.4 °F 24.8 °F 80% 30.21 in - West 4.6 mph - N/A   Clear
7:50 AM 33.8 °F - 28.4 °F 81% 30.24 in - Variable 2.3 mph - N/A   Clear
8:20 AM 37.4 °F 34.9 °F 28.4 °F 70% 30.24 in - West 3.5 mph - N/A   Clear
8:50 AM 39.2 °F - 28.4 °F 65% 30.24 in - Calm Calm - N/A   Clear
9:20 AM 41.0 °F - 26.6 °F 57% 30.24 in - Variable 2.3 mph - N/A   Clear
9:50 AM 42.8 °F 38.0 °F 26.6 °F 53% 30.24 in 6.2 mi NNE 8.1 mph - N/A   Partly Cloudy
10:20 AM 44.6 °F 41.4 °F 26.6 °F 49% 30.27 in 6.2 mi NNE 5.8 mph - N/A   Partly Cloudy
10:50 AM 44.6 °F 43.1 °F 28.4 °F 53% 30.27 in 6.2 mi Variable 3.5 mph - N/A   Scattered Clouds
11:20 AM 44.6 °F 41.4 °F 26.6 °F 49% 30.27 in 6.2 mi Variable 5.8 mph - N/A   Scattered Clouds
11:50 AM 48.2 °F - 30.2 °F 50% 30.27 in 6.2 mi Variable 3.5 mph - N/A   Scattered Clouds
12:20 PM 46.4 °F 43.5 °F 28.4 °F 50% 30.27 in 6.2 mi West 5.8 mph - N/A   Partly Cloudy
12:50 PM 46.4 °F 42.9 °F 26.6 °F 46% 30.27 in 6.2 mi WNW 6.9 mph - N/A   Scattered Clouds
1:20 PM 48.2 °F - 24.8 °F 40% 30.27 in 6.2 mi North 5.8 mph - N/A   Scattered Clouds
1:50 PM 48.2 °F - 26.6 °F 43% 30.27 in 6.2 mi West 8.1 mph - N/A   Partly Cloudy
2:20 PM 50.0 °F - 26.6 °F 40% 30.27 in 6.2 mi NW 6.9 mph - N/A   Scattered Clouds
2:50 PM 50.0 °F - 26.6 °F 40% 30.27 in 6.2 mi NW 9.2 mph - N/A   Scattered Clouds
3:20 PM 50.0 °F - 24.8 °F 37% 30.27 in 6.2 mi West 5.8 mph - N/A   Scattered Clouds
3:50 PM 48.2 °F - 23.0 °F 37% 30.27 in 6.2 mi WNW 5.8 mph - N/A   Scattered Clouds
4:20 PM 50.0 °F - 24.8 °F 37% 30.27 in 6.2 mi WNW 6.9 mph - N/A   Scattered Clouds
4:50 PM 50.0 °F - 24.8 °F 37% 30.27 in 6.2 mi Variable 4.6 mph - N/A   Scattered Clouds
5:20 PM 50.0 °F - 24.8 °F 37% 30.27 in 6.2 mi Variable 3.5 mph - N/A   Scattered Clouds
5:50 PM 48.2 °F - 24.8 °F 40% 30.27 in 6.2 mi WNW 6.9 mph - N/A   Scattered Clouds
6:20 PM 46.4 °F 43.5 °F 26.6 °F 46% 30.27 in 6.2 mi WNW 5.8 mph - N/A   Scattered Clouds
6:50 PM 48.2 °F - 24.8 °F 40% 30.27 in 6.2 mi WNW 9.2 mph - N/A   Scattered Clouds
7:20 PM 46.4 °F 41.5 °F 26.6 °F 46% 30.27 in 6.2 mi WNW 10.4 mph - N/A   Scattered Clouds
7:50 PM 46.4 °F 41.5 °F 26.6 °F 46% 30.27 in 6.2 mi WNW 10.4 mph - N/A   Partly Cloudy
8:20 PM 42.8 °F 38.6 °F 28.4 °F 57% 30.27 in 6.2 mi NW 6.9 mph - N/A   Partly Cloudy
8:50 PM 42.8 °F 39.3 °F 28.4 °F 57% 30.27 in 6.2 mi WNW 5.8 mph - N/A   Partly Cloudy
9:20 PM 37.4 °F 32.8 °F 28.4 °F 70% 30.30 in 6.2 mi NW 5.8 mph - N/A   Partly Cloudy
10:20 PM 32.0 °F 26.4 °F 26.6 °F 80% 30.30 in - WSW 5.8 mph - N/A   Clear
10:50 PM 32.0 °F 25.6 °F 26.6 °F 80% 30.30 in - WSW 6.9 mph - N/A   Clear
11:20 PM 33.8 °F 28.6 °F 26.6 °F 75% 30.30 in - WSW 5.8 mph - N/A   Clear
11:50 PM 32.0 °F 26.4 °F 26.6 °F 80% 30.30 in - WSW 5.8 mph - N/A   Clear